Flag for India Weather past 2 weeks in Muktsar, Punjab, India

Now
55 °F

Passing clouds.


Feels Like: 55 °F
Forecast: 51 / 75 °F
Wind: 5 mph from Northeast

Location: Lahore Airport

Current Time: Mar 5, 2015 at 9:35:36 PM

Latest Report: Mar 5, 2015 at 8:55 PM


Visibility: 3 mi

Pressure: 30.07 "Hg

Humidity: 88%

Dew point: 52 °F

Location of MuktsarLocation

Historic Weather in Muktsar — Graph

°F

Muktsar temperature yesterday

Maximum temperature yesterday: 73 °F (at 3:25 PM)
Minimum temperature yesterday: 50 °F (at 6:25 AM)
Average temperature yesterday: 62 °F

Past Weeks' High & Low Weather Summary

 TemperatureHumidityPressure
High77 °F (Feb 22, 2:25 PM)100% (Feb 21, 11:55 AM)30.09 "Hg (Feb 21, 11:55 AM)
Low48 °F (Feb 27, 6:55 AM)25% (Feb 26, 3:25 PM)29.68 "Hg (Feb 25, 5:25 AM)
Average62 °F71%29.94 "Hg
* Reported Feb 18 7:55 PM — Mar 5 8:25 PM, Muktsar, Weather by CustomWeather, © 2015

Note: Actual official high and low records may vary slightly from our data, if they occured in-between our weather recording intervals... More about our weather records

Advertising

Muktsar weather history for previous 24 hours

 ConditionsComfort  
Time TempWeatherWind HumidityBarometerVisibility
8:25 PM
Thu, Mar 5
55 °FPassing clouds.8 mph88%30.07 "Hg3 mi
7:55 PM55 °FPassing clouds.8 mph88%30.07 "Hg3 mi
7:25 PM57 °FPassing clouds.8 mph82%30.04 "Hg3 mi
6:55 PM57 °FPassing clouds.9 mph82%30.04 "Hg3 mi
6:25 PM57 °FScattered clouds.6 mph82%30.04 "Hg3 mi
5:55 PM59 °FBroken clouds.6 mph82%30.01 "Hg3 mi
5:25 PM59 °FBroken clouds.7 mph82%30.01 "Hg2 mi
4:55 PM61 °FBroken clouds.9 mph83%30.01 "Hg2 mi
4:27 PM61 °FBroken clouds.12 mph83%30.01 "Hg2 mi
3:55 PM61 °FLight rain. More clouds than sun.8 mph88%30.01 "Hg2 mi
3:25 PM61 °FLight rain. More clouds than sun.9 mph88%30.01 "Hg2 mi
2:55 PM63 °FLight rain. More clouds than sun.9 mph83%30.04 "Hg2 mi
2:25 PM63 °FLight rain. More clouds than sun.5 mph83%30.04 "Hg2 mi
1:55 PM63 °FRain. More clouds than sun.9 mph77%30.04 "Hg2 mi
1:25 PM63 °FRain. Broken clouds.9 mph77%30.04 "Hg2 mi
12:55 PM63 °FBroken clouds.7 mph73%30.07 "Hg2 mi
12:29 PM63 °FRain. Broken clouds.9 mph73%30.07 "Hg2 mi
11:55 AMN/ARain.7 mphN/A30.09 "Hg3 mi
11:25 AM63 °FBroken clouds.7 mph68%30.09 "Hg3 mi
10:55 AM61 °FBroken clouds.9 mph72%30.09 "Hg3 mi
10:25 AM61 °FBroken clouds.10 mph72%30.07 "Hg3 mi
9:55 AM59 °FBroken clouds.9 mph77%30.07 "Hg2 mi
8:55 AM57 °FFog.7 mph82%30.04 "Hg2 mi
8:30 AM57 °FFog.9 mph82%30.01 "Hg2 mi
7:30 AM55 °FFog.10 mph88%30.01 "Hg2 mi
7:00 AM55 °FLight rain. More clouds than sun.9 mph88%30.01 "Hg2 mi
6:30 AM55 °FLight rain. Mostly cloudy.7 mph88%30.01 "Hg2 mi
5:29 AM55 °FFog.12 mph94%29.95 "Hg2 mi
5:00 AM57 °FFog.13 mph88%29.95 "Hg2 mi
4:25 AM57 °FFog.13 mph88%29.95 "Hg2 mi
3:55 AM57 °FFog.8 mph82%29.98 "Hg2 mi
2:55 AM59 °FRain. Mostly cloudy.12 mph77%30.01 "Hg2 mi
2:25 AM59 °FLight rain. Partly cloudy.16 mph77%30.04 "Hg2 mi
1:55 AM61 °FPartly cloudy.3 mph72%30.01 "Hg2 mi
1:25 AM61 °FPassing clouds.3 mph72%30.01 "Hg2 mi
12:55 AM61 °FPassing clouds.No wind72%30.01 "Hg2 mi
12:25 AM61 °FPassing clouds.5 mph72%30.01 "Hg2 mi
11:55 PM
Wed, Mar 4
63 °FPassing clouds.No wind68%30.01 "Hg2 mi
11:25 PM63 °FPassing clouds.No wind68%30.01 "Hg2 mi
10:55 PM63 °FPassing clouds.No wind64%30.01 "Hg2 mi
10:25 PM63 °FPassing clouds.No wind68%30.01 "Hg2 mi
9:55 PM64 °FPassing clouds.No wind60%30.01 "Hg2 mi
9:25 PM64 °FPassing clouds.No wind60%29.98 "Hg2 mi
Weather by CustomWeather, © 2015

See weather overviewHow to use our weather pages